TimeMST,TemperatureF,Dew PointF,Humidity,Sea Level PressureIn,VisibilityMPH,Wind Direction,Wind SpeedMPH,Gust SpeedMPH,PrecipitationIn,Events,Conditions,WindDirDegrees,DateUTC
12:15 AM,44.6,28.4,53,29.93,10.0,ESE,5.8,-,N/A,,Clear,120,2012-11-08 07:15:00
12:35 AM,44.6,30.2,57,29.93,10.0,ESE,4.6,-,N/A,,Clear,120,2012-11-08 07:35:00
12:55 AM,42.8,28.4,57,29.93,10.0,North,3.5,-,N/A,,Clear,10,2012-11-08 07:55:00
1:15 AM,44.6,28.4,53,29.93,10.0,SE,4.6,-,N/A,,Clear,130,2012-11-08 08:15:00
1:35 AM,46.4,30.2,53,29.92,10.0,SE,11.5,-,N/A,,Clear,140,2012-11-08 08:35:00
1:55 AM,42.8,26.6,53,29.92,10.0,NNW,4.6,-,N/A,,Clear,340,2012-11-08 08:55:00
2:15 AM,44.6,28.4,53,29.91,10.0,ESE,8.1,-,N/A,,Clear,110,2012-11-08 09:15:00
2:35 AM,44.6,28.4,53,29.90,10.0,East,6.9,-,N/A,,Clear,90,2012-11-08 09:35:00
2:55 AM,44.6,28.4,53,29.90,10.0,Calm,Calm,-,N/A,,Clear,0,2012-11-08 09:55:00
3:35 AM,44.6,28.4,53,29.88,10.0,SE,6.9,-,N/A,,Clear,130,2012-11-08 10:35:00
3:55 AM,42.8,26.6,53,29.87,10.0,Calm,Calm,-,N/A,,Clear,0,2012-11-08 10:55:00
4:15 AM,44.6,28.4,53,29.87,10.0,SE,8.1,-,N/A,,Clear,130,2012-11-08 11:15:00
4:35 AM,44.6,28.4,53,29.87,10.0,ESE,9.2,-,N/A,,Clear,110,2012-11-08 11:35:00
5:15 AM,46.4,28.4,50,29.86,10.0,SE,11.5,-,N/A,,Clear,140,2012-11-08 12:15:00
5:35 AM,44.6,28.4,53,29.86,10.0,SSE,9.2,-,N/A,,Clear,150,2012-11-08 12:35:00
5:55 AM,44.6,28.4,53,29.85,10.0,ESE,5.8,-,N/A,,Clear,110,2012-11-08 12:55:00
6:15 AM,42.8,28.4,57,29.84,10.0,ESE,9.2,-,N/A,,Clear,110,2012-11-08 13:15:00
6:35 AM,42.8,26.6,53,29.84,10.0,SSE,10.4,-,N/A,,Clear,150,2012-11-08 13:35:00
6:50 AM,44.6,26.6,49,29.84,15.0,ESE,9.2,-,N/A,,Clear,120,2012-11-08 13:50:00
8:50 AM,53.6,28.4,38,29.83,15.0,ESE,11.5,-,N/A,,Clear,120,2012-11-08 15:50:00
10:50 AM,66.2,28.4,24,29.79,15.0,ESE,13.8,-,N/A,,Partly Cloudy,120,2012-11-08 17:50:00
11:50 AM,69.8,28.4,21,29.75,15.0,South,20.7,34.5,N/A,,Partly Cloudy,180,2012-11-08 18:50:00
1:59 PM,64.4,33.8,32,29.69,15.0,South,11.5,21.9,N/A,,Scattered Clouds,190,2012-11-08 20:59:00
2:48 PM,66.2,33.8,30,29.67,15.0,South,16.1,-,N/A,,Mostly Cloudy,190,2012-11-08 21:48:00
3:47 PM,64.4,32.0,30,29.66,15.0,SSW,17.3,-,N/A,,Mostly Cloudy,200,2012-11-08 22:47:00
4:47 PM,62.6,32.0,32,29.66,15.0,SSW,18.4,-,N/A,,Mostly Cloudy,210,2012-11-08 23:47:00
5:51 PM,57.2,32.0,38,29.65,15.0,SE,5.8,-,N/A,,Mostly Cloudy,140,2012-11-09 00:51:00
6:50 PM,62.6,23.0,22,29.64,15.0,South,15.0,-,N/A,,Mostly Cloudy,180,2012-11-09 01:50:00
7:48 PM,60.8,21.2,22,29.64,15.0,South,13.8,-,N/A,,Mostly Cloudy,170,2012-11-09 02:48:00
8:47 PM,59.0,32.0,36,29.65,15.0,South,10.4,-,N/A,,Mostly Cloudy,190,2012-11-09 03:47:00
9:15 PM,57.2,37.4,48,29.65,10.0,SW,11.5,-,N/A,,Mostly Cloudy,230,2012-11-09 04:15:00
9:35 PM,57.2,35.6,44,29.65,10.0,SSW,12.7,-,N/A,,Overcast,210,2012-11-09 04:35:00
9:55 PM,57.2,35.6,44,29.64,10.0,SW,15.0,-,N/A,,Overcast,220,2012-11-09 04:55:00
10:15 PM,59.0,33.8,39,29.64,10.0,SW,13.8,24.2,N/A,,Overcast,230,2012-11-09 05:15:00
10:35 PM,59.0,33.8,39,29.64,10.0,SW,13.8,-,N/A,,Overcast,230,2012-11-09 05:35:00
10:55 PM,57.2,37.4,48,29.64,10.0,SW,11.5,-,N/A,,Overcast,220,2012-11-09 05:55:00
11:15 PM,55.4,39.2,54,29.64,10.0,SSW,6.9,-,N/A,,Mostly Cloudy,200,2012-11-09 06:15:00
11:35 PM,55.4,35.6,47,29.64,10.0,South,8.1,-,N/A,,Overcast,190,2012-11-09 06:35:00
11:55 PM,57.2,35.6,44,29.64,10.0,SSW,10.4,17.3,N/A,,Overcast,210,2012-11-09 06:55:00